St. Eustatius, Netherlands

5:08 AM AST on May 26, 2018 (GMT -0400)
F.D. Roosevelt

Weather History for TNCE - January, 2013

Change the Weather History Date:

Tuesday, January 1, 2013

  Actual Average Record
Temperature  
Mean Temperature 80 °F -  
Max Temperature 84 °F 81 °F 138 °F (1998)
Min Temperature 75 °F 74 °F 32 °F (2015)
Cooling Degree Days 14    
Growing Degree Days 30 (Base 50)    
Moisture  
Dew Point 65 °F    
Average Humidity 68    
Maximum Humidity 74    
Minimum Humidity 58    
Precipitation  
Precipitation 0.00 in - - ()
Sea Level Pressure  
Sea Level Pressure 30.04 in    
Wind  
Wind Speed 15 mph ()    
Max Wind Speed 22 mph    
Max Gust Speed -    
Visibility 8.0 miles    
Events      
Averages and records for this station are not official NWS values.
T = Trace of Precipitation, MM = Missing Value Source: Averaged Metar Reports

Daily Weather History Graph

Daily Weather History Graph

Search for Another Location

Airport or City:

Astronomy

Jan. 01, 2013 Rise Set
Actual Time 6:42 AM AST 5:48 PM AST
Civil Twilight 6:18 AM AST 6:12 PM AST
Nautical Twilight 5:51 AM AST 6:39 PM AST
Astronomical Twilight 5:25 AM AST 7:06 PM AST
Moon 9:35 PM AST (1/1) 9:28 AM AST (1/1)
Length of Visible Light 11h 53m
Length of Day
11h 06m
Waning Gibbous, 84% of the Moon is Illuminated
Jan 1
Waning Gibbous
Jan 4
Last Quarter
Jan 11
New
Jan 18
First Quarter
Jan 27
Full

Hourly Weather History & Observations

Time (AST) Temp. Heat Index Dew Point Humidity Pressure Visibility Wind Dir Wind Speed Gust Speed Precip Events Conditions
12:00 AM - - - N/A% 30.04 in - NE 20.7 mph - N/A   Unknown
1:00 AM - - - N/A% 30.04 in - NE 21.9 mph - N/A   Unknown
2:00 AM - - - N/A% 30.01 in - NE 18.4 mph - N/A   Unknown
3:00 AM - - - N/A% 30.01 in - NE 19.6 mph - N/A   Unknown
4:00 AM - - - N/A% 30.01 in - NE 21.9 mph - N/A   Unknown
5:00 AM - - - N/A% 30.01 in - NE 19.6 mph - N/A   Unknown
6:00 AM - - - N/A% 30.01 in - NE 17.3 mph - N/A   Unknown
7:00 AM 75.2 °F - 66.2 °F 73% 30.04 in 6.2 mi NE 15.0 mph - N/A   Partly Cloudy
8:00 AM - - - %  in 16 mi ENE 17.3 mph - -   Partly Cloudy
8:00 AM 78.8 °F - 68.0 °F 69% 30.06 in 6.2 mi ENE 12.7 mph - N/A   Partly Cloudy
9:00 AM 80.6 °F 83.9 °F 69.8 °F 70% 30.06 in 6.2 mi ENE 13.8 mph - N/A   Partly Cloudy
10:00 AM 78.8 °F - 68.0 °F 69% 30.09 in 6.2 mi ENE 16.1 mph - N/A   Mostly Cloudy
11:00 AM 81 °F - 72 °F 66%  in 16 mi ENE 15.0 mph - -   Scattered Clouds
11:00 AM 80.6 °F 84.6 °F 71.6 °F 74% 30.09 in 6.2 mi ENE 15.0 mph - N/A   Partly Cloudy
12:00 PM 82.4 °F 87.2 °F 71.6 °F 70% 30.06 in 6.2 mi ENE 15.0 mph - N/A   Scattered Clouds
1:00 PM 80.6 °F 83.2 °F 68.0 °F 65% 30.04 in 6.2 mi NE 12.7 mph - N/A   Scattered Clouds
2:00 PM - - - %  in 16 mi ENE 16.1 mph - -   Partly Cloudy
2:00 PM 84.2 °F 88.4 °F 69.8 °F 62% 30.01 in 6.2 mi ENE 15.0 mph - N/A   Scattered Clouds
3:00 PM - - - N/A% 30.01 in 6.2 mi ENE 16.1 mph - N/A   Scattered Clouds
4:00 PM 84.2 °F 88.4 °F 69.8 °F 62% 30.01 in 6.2 mi ENE 15.0 mph - N/A   Partly Cloudy
5:00 PM 81 °F - 72 °F 66%  in 16 mi ENE 12.7 mph - -   Partly Cloudy
5:00 PM 80.6 °F 84.6 °F 71.6 °F 74% 30.01 in 6.2 mi ENE 12.7 mph - N/A   Scattered Clouds
6:00 PM - - - N/A% 30.04 in - ENE 15.0 mph - N/A   Scattered Clouds
7:00 PM 82.4 °F 84.6 °F 66.2 °F 58% 30.04 in 6.2 mi NE 11.5 mph - N/A   Mostly Cloudy
8:00 PM - - 32 °F %  in 6 mi NE 9.2 mph - -   Clear
8:00 PM - - - N/A% 30.04 in 6.2 mi NE 9.2 mph - N/A   Mostly Cloudy
9:00 PM - - - N/A% 30.04 in 6.2 mi ENE 11.5 mph - N/A   Mostly Cloudy
10:00 PM - - - N/A% 30.06 in 6.2 mi NE 16.1 mph - N/A   Mostly Cloudy
11:00 PM - - 32 °F %  in 6 mi NE 16.1 mph - -   Clear
11:00 PM - - - N/A% 30.04 in 6.2 mi NE 16.1 mph - N/A   Mostly Cloudy